Location: Mascot Post Office (historical)
(40.2645°N, 99.5462°W)
Time: 17:13:49
(UTC+00:00)

Cosmos 494 Rocket - Pass Details

Date: 14 July 2020
Orbit: 743 x 770 km, 74.1° (Epoch: 05 August)

Event Time Altitude Azimuth Distance (km) Brightness Sun altitude
Exits shadow 05:20:25 48° 83° (E) 978 4.4 -25.1°
Drops below altitude 10° 05:24:51 10° 30° (NNE) 2,274 6.9 -25.4°
Sets 05:27:16 0° 25° (NNE) 3,199 7.9 -25.6°
